Regional Weather Roundup
Issued by NWS

Home | Current Version | Previous Version | Graphics & Text | Print | Product List | Glossary On
Versions: 1 2 3 4 5 6 7 8 9 10 11 12 13 14 15 16 17 18 19 20 21 22 23 24 25 26 27 28 29 30 31 32 33 34 35 36 37 38 39 40 41 42 43 44 45 46 47 48 49 50
304
ASUS43 KMPX 262301
RWRMN
WEATHER ROUNDUP FOR MINNESOTA
NATIONAL WEATHER SERVICE TWIN CITIES/CHANHASSEN MN
600 PM CDT THU MAY 26 2016


NOTE: "FAIR" INDICATES FEW OR NO CLOUDS BELOW 12,000 FEET WITH NO
SIGNIFICANT WEATHER AND/OR OBSTRUCTIONS TO VISIBILITY. N/A MEANS
CURRENT SKY AND/OR WEATHER CONDITIONS ARE NOT AVAILABLE.

MNZ060>063-068>070-270000-
   Twin Cities Metro

CITY           SKY/WX    TMP DP  RH WIND       PRES   REMARKS
TWIN CITIES    PTSUNNY   79  50  36 SW8       29.78R
ST PAUL        SUNNY     78  50  37 W10       29.77S
CRYSTAL        SUNNY     78  49  35 W13       29.77R
BLAINE         SUNNY     81  48  32 W12       29.77F
EDEN PRAIRIE   SUNNY     79  50  36 VRB5      29.78R
SOUTH ST PAUL  SUNNY     79  48  32 W8        29.78S
LAKE ELMO      FAIR      79  55  44 W6        29.78F
$$
MNZ001>005-007-008-013>017-022>024-027-028-270000-
   Northwest Minnesota

CITY           SKY/WX    TMP DP  RH WIND       PRES   REMARKS
BEMIDJI        SUNNY     71  53  52 W13G21    29.76F
HALLOCK        MOSUNNY   68  55  64 W14G21    29.70F
ROSEAU         MOSUNNY   70  57  64 SW12G21   29.71S
WARROAD        MOSUNNY   70  57  64 SW12      29.71F
THIEF RVR FALL PTSUNNY   68  55  64 SW13      29.75F
CROOKSTON      SUNNY     72  57  60 NW12      29.74S
FOSSTON        SUNNY     72  52  49 W12       29.77F
DETROIT LAKES  SUNNY     70  54  56 NW9       29.78F
MOORHEAD       MOSUNNY   73  54  49 NW9G18    29.75F
PARK RAPIDS    SUNNY     73  50  44 NW20G25   29.77F
MAHNOMEN       FAIR      68  55  61 W13       29.77F
$$
MNZ006-009>011-018-025>026-270000-
   North Central Minnesota

CITY           SKY/WX    TMP DP  RH WIND       PRES   REMARKS
BAUDETTE       MOSUNNY   71  53  52 W13G22    29.71F
FLAG ISLAND    MOSUNNY   66  54  63 SW12      29.69F
INTL FALLS     MOSUNNY   74  51  44 W9        29.71F
WASKISH        MOSUNNY   70  59  68 SW9       29.75S
BIG FORK       PTSUNNY   72  54  53 SW7       29.74S
LONGVILLE      SUNNY     73  50  43 W10G16    29.77F
GRAND RAPIDS   SUNNY     74  51  44 SW9       29.76F
CRANE LAKE     CLOUDY    70  54  56 S5        29.75S
ORR            PTSUNNY   73  52  46 CALM      29.72S
COOK           SUNNY     73  54  49 S8        29.74F
WALKER         FAIR      71  51  48 W14G20    29.75F
$$
MNZ012-019>021-037-270000-
   Northeast Minnesota

CITY           SKY/WX    TMP DP  RH WIND       PRES   REMARKS
DULUTH         MOSUNNY   61  52  72 SE7       29.76F
ELY            SUNNY     72  48  43 W10       29.75F
HIBBING        MOSUNNY   74  54  49 S6        29.74F
EVELETH        SUNNY     72  52  49 W5        29.76F
DULUTH HARBOR  FOG       46  45  93 NE6       29.78F VSB 1
TWO HARBORS    MOSUNNY   59  54  82 SE5       29.76F
SILVER BAY     SUNNY     64  57  77 NE2       29.77F
GRAND MARAIS     N/A     48  46  93 CALM      29.80F
G MARAIS ARPRT PTSUNNY   61  52  72 SW3       29.82F
$$
MNZ029>031-032-039>041-046>048-054>057-064-270000-
   West Central Minnesota

CITY           SKY/WX    TMP DP  RH WIND       PRES   REMARKS
FERGUS FALLS   SUNNY     75  48  38 NW16      29.69F
WHEATON        SUNNY     79  52  38 W12       29.74F
MORRIS         MOSUNNY   79  52  38 W13       29.74R
ALEXANDRIA     SUNNY     76  46  34 NW12G18   29.77F
ELBOW LAKE     FAIR      77  49  37 NW12      29.74F
WADENA         SUNNY     73  52  46 NW9       29.73F
GLENWOOD       SUNNY     77  46  33 W10       29.76R
APPLETON       SUNNY     79  45  29 W8        29.75S
BENSON         SUNNY     79  41  25 NW9       29.75F
ORTONVILLE     SUNNY     77  46  33 W8G16     29.75S
MADISON        SUNNY     79  46  31 W7        29.76F
WILLMAR        FAIR      81  46  30 NW8       29.77F
$$
MNZ033>034-036-042>043-049>051-058-059-270000-
   Central Minnesota

CITY           SKY/WX    TMP DP  RH WIND       PRES   REMARKS
ST CLOUD       SUNNY     78  48  34 NW9       29.75F
SAUK CENTRE    FAIR      76  47  36 NW8G16    29.76R
PAYNESVILLE    SUNNY     80  41  25 W12       29.77R
AITKIN         CLOUDY    75  43  31 NW6       29.71F
PINE RIVER     SUNNY     72  52  49 W8        29.77F
BRAINERD       MOSUNNY   74  46  36 NW12      29.73F
STAPLES        MOSUNNY   73  46  38 NW13      29.73F
LONG PRAIRIE   FAIR      73  50  43 NW10      29.76F
LITTLE FALLS   SUNNY     73  45  35 NW8       29.75F
LITCHFIELD     SUNNY     79  46  31 W7        29.78R
BUFFALO        SUNNY     77  47  34 SW5       29.79R
MAPLE LAKE     SUNNY     79  53  40 W6        29.76F
HUTCHINSON     SUNNY     79  51  36 SW5       29.79R
$$
MNZ037-044-045-052-053-270000-
   East Central Minnesota

CITY           SKY/WX    TMP DP  RH WIND       PRES   REMARKS
PRINCETON      SUNNY     79  48  34 W8        29.75F
MORA           SUNNY     75  46  35 W10       29.76F
CAMBRIDGE        N/A     81  55  41 W6        29.73F
RUSH CITY      SUNNY     76  49  37 W9        29.75F
MOOSE LAKE     SUNNY     77  50  38 W6        29.70F
HINCKLEY       FAIR      77  52  41 W12       29.74F
CLOQUET        MOSUNNY   63  54  72 E6        29.74F
MCGREGOR       SUNNY     73  50  43 NW9       29.73F
$$
MNZ071>073-080-081-089-090-097-098-270000-
   Southwest Minnesota

CITY           SKY/WX    TMP DP  RH WIND       PRES   REMARKS
MONTEVIDEO     SUNNY     82  46  28 N9        29.77F
GRANITE FALLS  SUNNY     82  47  29 SW7       29.77S
CANBY          SUNNY     79  52  38 NW3       29.78S
MARSHALL       CLOUDY    79  50  36 SE6       29.78S
REDWOOD FALLS  PTSUNNY   81  47  30 W5        29.77S
OLIVIA         MOSUNNY   70  37  30 W7        29.76R
PIPESTONE      MOSUNNY   75  46  35 S8        29.81S
WINDOM         CLOUDY    75  48  38 CALM      29.82R
WORTHINGTON    CLOUDY    74  54  49 SE9       29.84
JACKSON        CLOUDY    73  50  43 SE3       29.86R
TRACY          CLOUDY    78  51  39 SW7       29.80R
SLAYTON        CLOUDY    75  46  36 NW3       29.82S
$$
MNZ065>067-074>077-082>085-091>093-270000-
   South Central Minnesota

CITY           SKY/WX    TMP DP  RH WIND       PRES   REMARKS
MANKATO        CLOUDY    77  48  36 SW5       29.82R
NEW ULM        MOSUNNY   75  50  41 SE8       29.79R
ST JAMES       CLOUDY    72  48  43 S5        29.82R
FAIRMONT       CLOUDY    77  41  27 SE5       29.83R
GLENCOE        MOSUNNY   79  52  38 NW8       29.78S
OWATONNA       CLOUDY    77  52  41 SW7       29.84R
WASECA         CLOUDY    77  50  38 SW6       29.84R
ALBERT LEA     CLOUDY    77  54  44 CALM      29.84R
$$
MNZ078>079-086>088-094>096-270000-
   Southeast Minnesota

CITY           SKY/WX    TMP DP  RH WIND       PRES   REMARKS
ROCHESTER      SUNNY     75  58  55 W10       29.85R
RED WING       SUNNY     81  46  30 W8        29.79R
STANTON        SUNNY     78  53  41 SW8       29.80R
DODGE CENTER   SUNNY     77  48  36 W8        29.85R
WINONA         SUNNY     81  52  36 W7        29.81R
AUSTIN         MOSUNNY   75  52  43 SW5       29.84R
PRESTON        CLOUDY    75  56  51 W8        29.86R
$$
ABBREVIATIONS USED IN REMARKS
   TC - TEMPERATURES IN CELSIUS
  WCI - WIND CHILL INDEX
   HX - HEAT INDEX
  VSB - VISIBILITY
$$




USA.gov is the U.S. government's official web portal to all federal, state and local government web resources and services.